#timestamp,LO_Frequency,Hit,StdDev 
1645178415.8,286046997.0,N
1645178435.7,286046991.9,N
1645178455.5,286046993.3,N
1645178475.3,286046998.9,N
1645178495.2,286046999.2,N
1645178515.0,286047000.6,N
1645178515.9,286047000.6,N
1645178535.7,286046999.7,N
1645178555.6,286046999.5,N
1645178575.4,286047001.8,N
1645178595.3,286046998.4,N
1645178615.1,286047003.5,N
1645178616.0,286047003.5,N
1645178635.8,286047009.1,N
1645178655.7,286047010.4,N
1645178675.5,286047004.9,N
1645178695.3,286047005.5,N
1645178715.2,286047004.3,N
1645178735.0,286047004.1,N
1645178735.9,286047004.1,N
1645178755.8,286047006.8,N
1645178775.6,286047008.4,N
1645178795.4,286047003.4,N
1645178815.3,286047002.1,N
1645178835.1,286046998.8,N
1645178855.9,286046992.6,N
1645178875.7,286046995.8,N
1645178895.5,286046996.1,N
1645178915.4,286046993.4,N
1645178935.2,286046990.6,N
1645178955.0,286046987.8,N
1645178955.9,286046987.8,N
1645178975.8,286046992.9,N
1645178995.6,286046992.7,N
1645179015.5,286046995.9,N
1645179035.3,286046996.4,N
1645179055.1,286046996.8,N
1645179075.9,286046996.7,N
1645179095.7,286046995.5,N
1645179115.5,286046991.4,N
1645179135.4,286046997.1,N
1645179155.2,286046998.8,N
1645179175.0,286046997.5,N
1645179176.0,286046997.5,N
1645179195.8,286046994.2,N
1645179215.6,286046998.0,N
1645179235.5,286046998.5,N
1645179255.3,286047003.6,N
1645179275.1,286047001.5,N
1645179295.9,286047002.1,N
1645179315.7,286047004.8,N
1645179335.5,286047007.4,N
1645179355.4,286046993.4,N
1645179375.2,286046988.1,N
1645179395.1,286046973.3,Y
1645179396.0,286046973.3,P
1645179415.8,286046973.1,N
1645179435.6,286046981.0,N
1645179455.5,286046984.6,N
1645179475.3,286046982.2,N
1645179495.2,286046970.4,Y
1645179515.9,286046981.5,P
1645179535.7,286046984.0,P
1645179555.6,286046992.9,P
1645179575.4,286046991.1,N
1645179595.2,286046987.4,N
1645179615.1,286046997.7,N
1645179616.0,286046997.7,N
1645179635.8,286046998.1,N
1645179655.7,286047003.9,N
1645179675.5,286047004.5,N
1645179695.3,286047005.0,N
1645179715.2,286047003.5,N
1645179735.9,286047006.7,N
1645179755.7,286047006.7,N
1645179775.6,286047007.0,N
1645179795.4,286047004.7,N
1645179815.2,286047003.5,N
1645179835.1,286047002.1,N
1645179836.0,286047002.1,N
1645179855.8,286047000.5,N
1645179875.7,286047000.5,N
1645179895.5,286047003.7,N
1645179915.3,286047003.3,N
1645179935.2,286047006.8,N
1645179955.0,286047001.6,N
1645179955.9,286047001.6,N
1645179975.8,286046995.7,N
1645179995.6,286047000.3,N
1645180015.4,286047001.3,N
1645180035.3,286046998.4,N
1645180055.1,286046998.1,N
1645180075.8,286046998.8,N
1645180095.7,286047000.5,N
1645180115.5,286046995.0,N
1645180135.4,286046996.1,N
1645180155.2,286046997.6,N
1645180175.0,286047000.1,N
1645180175.9,286047000.1,N
1645180195.8,286046995.4,N
1645180215.6,286046995.7,N
1645180235.4,286046994.5,N
1645180255.3,286046991.7,N
1645180275.1,286046992.1,N
1645180295.9,286046992.9,N
1645180315.7,286046993.9,N
1645180335.5,286046992.2,N
1645180355.4,286046994.0,N
1645180375.2,286046996.1,N
1645180395.0,286046994.0,N
1645180395.9,286046994.0,N
1645180415.8,286046986.0,Y
1645180435.6,286046985.7,P
1645180455.5,286046997.1,N
1645180475.3,286046994.3,N
1645180495.1,286046998.9,N
1645180515.9,286046997.5,N
1645180535.7,286046992.6,N
1645180555.6,286046986.2,Y
1645180575.4,286046990.6,P
1645180595.2,286046993.5,P
1645180615.1,286046995.9,N
1645180616.0,286046995.9,N
1645180635.8,286046996.7,N
1645180655.6,286046998.4,N
1645180675.5,286047004.2,N
1645180695.3,286046996.9,N
1645180715.1,286047001.1,N
1645180735.9,286047000.8,N
1645180755.7,286047002.8,N
1645180775.6,286046996.7,N
1645180795.4,286046997.9,N
1645180815.2,286046999.1,N
1645180835.1,286046992.2,N
1645180836.0,286046992.2,N
1645180855.8,286046992.2,N
1645180875.6,286046997.6,N
1645180895.5,286046999.4,N
1645180915.3,286046998.5,N
1645180935.2,286046997.1,N
1645180955.9,286047000.6,N
1645180975.7,286046995.7,N
1645180995.6,286046997.7,N
1645181015.4,286046995.6,N
1645181035.2,286046989.8,Y
1645181055.1,286046990.7,P
1645181056.0,286046990.7,N
1645181075.8,286046991.7,N
1645181095.7,286046991.4,Y
1645181115.5,286046998.8,P
1645181135.3,286047000.3,N
1645181155.2,286047000.9,N
1645181175.0,286046999.2,N
1645181175.9,286046999.2,N
1645181195.8,286047002.8,N
1645181215.6,286046997.3,N
1645181235.4,286046997.7,N
1645181255.3,286046997.9,N
1645181275.1,286046999.0,N
1645181295.8,286047000.7,N
1645181315.7,286046995.8,N
1645181335.5,286046988.6,Y
1645181355.4,286046993.7,P
1645181375.2,286047003.8,N
1645181395.0,286047003.8,N
1645181395.9,286047003.8,N
1645181415.8,286047002.8,N
1645181435.6,286047000.7,N
1645181455.4,286046993.3,N
1645181475.3,286046997.9,N
1645181495.1,286046998.5,N
1645181515.9,286047002.7,N
1645181535.7,286046999.1,N
1645181555.5,286047000.1,N
1645181575.4,286047001.5,N
1645181595.2,286047007.3,N
1645181615.0,286047005.5,N
1645181615.9,286047005.5,N
1645181635.8,286047004.2,N
1645181655.6,286047005.6,N
1645181675.5,286046998.3,N
1645181695.3,286047004.6,N
1645181715.1,286047002.6,N
1645181735.9,286047004.3,N
1645181755.7,286047002.5,N
1645181775.5,286047004.3,N
1645181795.4,286047001.8,N
1645181815.2,286047008.2,N
1645181835.1,286047006.0,N
1645181836.0,286047006.0,N
1645181855.8,286047007.0,N
1645181875.6,286047005.5,N
1645181895.5,286047007.1,N
1645181915.3,286047004.9,N
1645181935.1,286047004.8,N
1645181955.9,286047004.7,N
1645181975.7,286047003.5,N
1645181995.6,286047007.8,N
